Grafton, ND

10:43 PM CST on February 10, 2016 (GMT -0600)
Grafton Municipal

Weather History for KGAF - November, 2013

Change the Weather History Date:

Monday, November 11, 2013

  Actual Average Record
Temperature  
Mean Temperature 10 °F -  
Max Temperature 17 °F 35 °F 60 °F (1987)
Min Temperature 3 °F 19 °F -10 °F (1986)
Degree Days  
Heating Degree Days 55    
Moisture  
Dew Point 4 °F    
Average Humidity 68    
Maximum Humidity 85    
Minimum Humidity 53    
Precipitation  
Precipitation 0.00 in - - ()
Sea Level Pressure  
Sea Level Pressure 30.62 in    
Wind  
Wind Speed 12 mph (NW)    
Max Wind Speed 20 mph    
Max Gust Speed 25 mph    
Visibility 10 miles    
Events Rain , Snow    
Averages and records for this station are not official NWS values.
T = Trace of Precipitation, MM = Missing Value Source: NWS Daily Summary

Daily Weather History Graph

Daily Weather History Graph

Search for Another Location

Airport or City:

Trip Planner

Search our weather history database for the weather conditions in past years. The results will help you decide how hot, cold, wet, or windy it might be!

Date:

Astronomy

Nov. 11, 2013 Rise Set
Actual Time 7:31 AM CST 4:55 PM CST
Civil Twilight 6:57 AM CST 5:28 PM CST
Nautical Twilight 6:19 AM CST 6:06 PM CST
Astronomical Twilight 5:43 AM CST 6:43 PM CST
Moon 2:02 PM CST 12:49 AM CST
Length of Visible Light 10h 31m
Length of Day
9h 23m
Waxing Gibbous, 66% of the Moon is Illuminated
Nov 11
Waxing Gibbous
Nov 17
Full
Nov 25
Last Quarter
Dec 2
New
Dec 9
First Quarter

Hourly Weather History & Observations

Time (CST) Temp. Windchill Dew Point Humidity Pressure Visibility Wind Dir Wind Speed Gust Speed Precip Events Conditions
12:15 AM 14.0 °F -0.2 °F 6.8 °F 73% 30.42 in 10.0 mi NNW 12.7 mph - N/A   Overcast
12:35 AM 14.0 °F 0.5 °F 5.0 °F 67% 30.43 in 10.0 mi NNW 11.5 mph - N/A   Overcast
12:55 AM 14.0 °F -2.0 °F 5.0 °F 67% 30.43 in 10.0 mi North 16.1 mph - N/A   Overcast
1:15 AM 14.0 °F -3.4 °F 5.0 °F 67% 30.44 in 10.0 mi North 19.6 mph - N/A   Overcast
1:35 AM 14.0 °F -1.4 °F 5.0 °F 67% 30.44 in 10.0 mi NNW 15.0 mph 25.3 mph N/A   Overcast
1:55 AM 14.0 °F -2.0 °F 5.0 °F 67% 30.45 in 10.0 mi North 16.1 mph 23.0 mph N/A   Overcast
2:15 AM 14.0 °F -0.8 °F 5.0 °F 67% 30.45 in 8.0 mi North 13.8 mph - N/A Snow Light Snow
2:35 AM 14.0 °F -1.4 °F 6.8 °F 73% 30.46 in 8.0 mi NNW 15.0 mph - N/A Snow Light Snow
2:55 AM 14.0 °F -1.4 °F 5.0 °F 67% 30.47 in 10.0 mi NNW 15.0 mph 20.7 mph N/A Rain Light Freezing Rain
3:15 AM 14.0 °F -0.8 °F 5.0 °F 67% 30.47 in 9.0 mi North 13.8 mph 23.0 mph N/A Rain Light Freezing Rain
3:35 AM 14.0 °F -0.8 °F 6.8 °F 73% 30.47 in 5.0 mi North 13.8 mph 19.6 mph N/A Snow Light Snow
3:55 AM 14.0 °F -2.0 °F 5.0 °F 67% 30.48 in 10.0 mi North 16.1 mph 21.9 mph N/A   Overcast
4:15 AM 14.0 °F -0.2 °F 5.0 °F 67% 30.49 in 10.0 mi North 12.7 mph 18.4 mph N/A   Overcast
4:35 AM 14.0 °F -2.0 °F 5.0 °F 67% 30.50 in 10.0 mi North 16.1 mph - N/A   Overcast
4:55 AM 14.0 °F -1.4 °F 5.0 °F 67% 30.51 in 10.0 mi North 15.0 mph 20.7 mph N/A   Overcast
5:15 AM 12.2 °F -1.8 °F 5.0 °F 73% 30.52 in 10.0 mi NNW 11.5 mph - N/A   Overcast
5:35 AM 12.2 °F -1.8 °F 5.0 °F 73% 30.53 in 10.0 mi NNW 11.5 mph - N/A   Overcast
5:55 AM 12.2 °F -1.8 °F 5.0 °F 73% 30.53 in 10.0 mi North 11.5 mph - N/A   Mostly Cloudy
6:15 AM 12.2 °F -2.5 °F 5.0 °F 73% 30.54 in 10.0 mi North 12.7 mph - N/A   Overcast
6:35 AM 12.2 °F -3.7 °F 5.0 °F 73% 30.55 in 10.0 mi NNW 15.0 mph 19.6 mph N/A   Mostly Cloudy
6:55 AM 12.2 °F -4.3 °F 5.0 °F 73% 30.56 in 10.0 mi North 16.1 mph 20.7 mph N/A   Mostly Cloudy
7:15 AM 12.2 °F -1.8 °F 5.0 °F 73% 30.57 in 10.0 mi North 11.5 mph 18.4 mph N/A   Mostly Cloudy
7:35 AM 12.2 °F -2.5 °F 5.0 °F 73% 30.58 in 10.0 mi North 12.7 mph 18.4 mph N/A   Mostly Cloudy
7:55 AM 12.2 °F -1.0 °F 5.0 °F 73% 30.59 in 10.0 mi NNW 10.4 mph 19.6 mph N/A   Mostly Cloudy
8:15 AM 12.2 °F -4.8 °F 5.0 °F 73% 30.60 in 10.0 mi NNW 17.3 mph 23.0 mph N/A   Mostly Cloudy
8:35 AM 14.0 °F -1.4 °F 5.0 °F 67% 30.61 in 10.0 mi North 15.0 mph 19.6 mph N/A   Mostly Cloudy
8:55 AM 14.0 °F -2.0 °F 5.0 °F 67% 30.62 in 10.0 mi North 16.1 mph - N/A   Mostly Cloudy
9:15 AM 14.0 °F -0.8 °F 5.0 °F 67% 30.63 in 10.0 mi North 13.8 mph 24.2 mph N/A   Mostly Cloudy
9:35 AM 14.0 °F -2.5 °F 5.0 °F 67% 30.63 in 10.0 mi North 17.3 mph - N/A   Overcast
9:55 AM 14.0 °F -0.2 °F 5.0 °F 67% 30.64 in 10.0 mi NNW 12.7 mph 18.4 mph N/A   Overcast
10:15 AM 15.8 °F 2.7 °F 5.0 °F 62% 30.65 in 10.0 mi NNW 11.5 mph 17.3 mph N/A   Overcast
10:35 AM 14.0 °F -0.2 °F 5.0 °F 67% 30.66 in 10.0 mi North 12.7 mph - N/A Snow Light Snow
10:55 AM 14.0 °F -0.2 °F 5.0 °F 67% 30.67 in 7.0 mi North 12.7 mph - N/A Rain Light Freezing Rain
11:15 AM 14.0 °F 2.0 °F 6.8 °F 73% 30.67 in 5.0 mi North 9.2 mph - N/A Snow Light Snow
11:35 AM 14.0 °F 1.2 °F 5.0 °F 67% 30.68 in 8.0 mi NNW 10.4 mph - N/A Snow Light Snow
11:55 AM 15.8 °F 4.2 °F 5.0 °F 62% 30.67 in 10.0 mi North 9.2 mph - N/A   Overcast
12:15 PM 15.8 °F 4.2 °F 5.0 °F 62% 30.67 in 9.0 mi North 9.2 mph 16.1 mph N/A   Overcast
12:35 PM 15.8 °F 2.7 °F 6.8 °F 68% 30.67 in 5.0 mi NNW 11.5 mph - N/A Snow Light Snow
12:55 PM 15.8 °F 4.2 °F 5.0 °F 62% 30.67 in 10.0 mi NW 9.2 mph - N/A   Overcast
1:15 PM 15.8 °F 3.4 °F 5.0 °F 62% 30.67 in 10.0 mi NNW 10.4 mph - N/A   Overcast
1:35 PM 17.6 °F 5.0 °F 5.0 °F 58% 30.67 in 10.0 mi NNW 11.5 mph - N/A   Mostly Cloudy
1:55 PM 17.6 °F 7.3 °F 5.0 °F 58% 30.68 in 10.0 mi North 8.1 mph - N/A   Overcast
2:15 PM 17.6 °F 8.2 °F 5.0 °F 58% 30.67 in 10.0 mi NW 6.9 mph - N/A   Mostly Cloudy
2:35 PM 17.6 °F 7.3 °F 5.0 °F 58% 30.67 in 10.0 mi NW 8.1 mph - N/A   Scattered Clouds
2:55 PM 17.6 °F 6.4 °F 5.0 °F 58% 30.67 in 10.0 mi WNW 9.2 mph - N/A   Partly Cloudy
3:15 PM 17.6 °F 7.3 °F 5.0 °F 58% 30.67 in 10.0 mi NW 8.1 mph - N/A   Clear
3:35 PM 17.6 °F 7.3 °F 3.2 °F 53% 30.67 in 10.0 mi NNW 8.1 mph - N/A   Clear
3:55 PM 17.6 °F 6.4 °F 5.0 °F 58% 30.67 in 10.0 mi NW 9.2 mph - N/A   Clear
4:15 PM 17.6 °F 8.2 °F 5.0 °F 58% 30.68 in 10.0 mi NW 6.9 mph - N/A   Clear
4:35 PM 15.8 °F 6.1 °F 3.2 °F 58% 30.68 in 10.0 mi NW 6.9 mph - N/A   Clear
4:55 PM 15.8 °F 6.1 °F 3.2 °F 58% 30.69 in 10.0 mi NW 6.9 mph - N/A   Clear
5:15 PM 15.8 °F 10.2 °F 3.2 °F 58% 30.70 in 10.0 mi NW 3.5 mph - N/A   Clear
5:35 PM 15.8 °F - 3.2 °F 58% 30.70 in 10.0 mi Calm Calm - N/A   Clear
5:55 PM 14.0 °F - 1.4 °F 57% 30.71 in 10.0 mi Calm Calm - N/A   Clear
6:15 PM 14.0 °F - 1.4 °F 57% 30.71 in 10.0 mi Calm Calm - N/A   Clear
6:35 PM 10.4 °F 4.0 °F 3.2 °F 73% 30.71 in 10.0 mi WSW 3.5 mph - N/A   Clear
6:55 PM 10.4 °F 2.2 °F 1.4 °F 67% 30.71 in 10.0 mi WSW 4.6 mph - N/A   Clear
7:15 PM 10.4 °F 0.8 °F 5.0 °F 79% 30.71 in 10.0 mi SW 5.8 mph - N/A   Clear
7:35 PM 10.4 °F 0.8 °F 5.0 °F 79% 30.71 in 10.0 mi WSW 5.8 mph - N/A   Clear
7:55 PM 8.6 °F 0.1 °F 3.2 °F 79% 30.71 in 10.0 mi West 4.6 mph - N/A   Clear
8:15 PM 8.6 °F -1.3 °F 3.2 °F 79% 30.71 in 10.0 mi WSW 5.8 mph - N/A   Clear
8:35 PM 5.0 °F -6.9 °F -0.4 °F 78% 30.71 in 10.0 mi SW 6.9 mph - N/A   Clear
8:55 PM 5.0 °F -6.9 °F -0.4 °F 78% 30.71 in 10.0 mi WSW 6.9 mph - N/A   Clear
9:15 PM 6.8 °F -3.5 °F 1.4 °F 79% 30.72 in 10.0 mi WSW 5.8 mph - N/A   Clear
9:35 PM 6.8 °F -0.1 °F -0.4 °F 72% 30.72 in 10.0 mi WSW 3.5 mph - N/A   Clear
9:55 PM 6.8 °F -2.0 °F 1.4 °F 79% 30.72 in 10.0 mi WSW 4.6 mph - N/A   Clear
10:15 PM 5.0 °F -6.9 °F -0.4 °F 78% 30.71 in 10.0 mi SW 6.9 mph - N/A   Clear
10:35 PM 3.2 °F -11.3 °F -0.4 °F 85% 30.71 in 10.0 mi SW 9.2 mph - N/A   Clear
10:55 PM 5.0 °F -8.1 °F -0.4 °F 78% 30.70 in 10.0 mi SW 8.1 mph - N/A   Clear
11:15 PM 5.0 °F -8.1 °F -0.4 °F 78% 30.70 in 10.0 mi SW 8.1 mph - N/A   Clear
11:35 PM 5.0 °F -8.1 °F -0.4 °F 78% 30.70 in 10.0 mi SSW 8.1 mph - N/A   Clear
11:55 PM 3.2 °F -10.3 °F -0.4 °F 85% 30.71 in 10.0 mi SSW 8.1 mph - N/A   Clear